Regional Weather Roundup
Issued by NWS

Home | Current Version | Previous Version | Text Only | Print | Product List | Glossary Off
Versions: 1 2 3 4 5 6 7 8 9 10 11 12 13 14 15 16 17 18 19 20 21 22 23 24 25 26 27 28 29 30 31 32 33 34 35 36 37 38 39 40 41 42 43 44 45 46 47 48 49 50

000
ASUS45 KPSR 060810
RWRAZ

ARIZONA HOURLY REGIONAL WEATHER ROUNDUP
NATIONAL WEATHER SERVICE PHOENIX AZ
100 AM MST SAT FEB 06 2016

NOTE: FAIR INDICATES FEW OR NO CLOUDS BELOW 12,000 FEET WITH NO
SIGNIFICANT WEATHER AND/OR OBSTRUCTIONS TO VISIBILITY.

AZZ001>003-036-060900-
NORTHWEST ARIZONA

CITY           SKY/WX    TMP DP  RH WIND       PRES   REMARKS
BULLHEAD CITY  CLEAR     55  25  30 NE20      30.41S
KINGMAN        CLEAR     31  32 100 E7        30.44F WCI  24
$$

AZZ004>008-015-016-018-060900-
NORTH CENTRAL ARIZONA

CITY           SKY/WX    TMP DP  RH WIND       PRES   REMARKS
GRAND CANYON   PTCLDY    13   9  84 NE3       30.48S
WILLIAMS       CLEAR     25   5  42 E5        30.50R WCI  19
PRESCOTT       CLEAR     27  16  63 NW5       30.45R WCI  22
FLAGSTAFF      CLEAR     19  11  70 E5        30.46R WCI  12
PAYSON         CLEAR     32  14  47 CALM      30.45R
PAGE           CLEAR     29  20  69 E5        30.52S WCI  24
$$

AZZ009>014-017-060900-
NORTHEAST ARIZONA

CITY           SKY/WX    TMP DP  RH WIND       PRES   REMARKS
WINSLOW        CLEAR     20  15  81 S3        30.51S
SAINT JOHNS    CLEAR     21  13  71 SE3       30.48S
WINDOW ROCK    CLEAR     14   0  53 CALM      30.47F
SHOW LOW       CLEAR     19  10  68 CALM      30.48S
$$

AZZ023-060900-
GREATER PHOENIX AREA

CITY           SKY/WX    TMP DP  RH WIND       PRES   REMARKS
PHOENIX        CLEAR     49  22  34 SW3       30.35R
BUCKEYE        CLEAR     55  12  18 NE5       30.36S
LUKE AFB       CLEAR     54  17  23 NE13      30.34F
DEER VALLEY    CLEAR     46  16  30 CALM      30.36R
SCOTTSDALE     CLEAR     50  13  22 CALM      30.36S
MESA-GATEWAY   CLEAR     43  23  45 SW7       30.36R
$$

AZZ027-028-060900-
SOUTHWEST MARICOPA COUNTY AND PINAL COUNTY

CITY           SKY/WX    TMP DP  RH WIND       PRES   REMARKS
CASA GRANDE    CLEAR     50  16  25 NE7       30.36R
GILA BEND      FAIR      42  22  44 E6        30.31F
$$

AZZ503-504-507>509-060900-
SOUTHEAST ARIZONA

CITY           SKY/WX    TMP DP  RH WIND       PRES   REMARKS
TUCSON         CLEAR     46  14  27 E6        30.36S
DAVIS-MONTHAN  CLEAR     45  14  28 SE7       30.34S
NOGALES        CLEAR     43   9  24 CALM      30.34F
SIERRA VISTA   CLEAR     33  13  43 E5        30.39S WCI  29
DOUGLAS        CLEAR     34  10  37 CALM      30.42R
SAFFORD        CLEAR     45   9  23 E12       30.41R
$$

AZZ020-021-025-026-031-060900-
SOUTHWEST ARIZONA

CITY           SKY/WX    TMP DP  RH WIND       PRES   REMARKS
YUMA           CLEAR     56  24  29 N8        30.33R
$$

CAZ031-033-041-043-047-048-061-060900-
SOUTHERN CALIFORNIA

CITY           SKY/WX    TMP DP  RH WIND       PRES   REMARKS
DOWNTOWN L.A.  CLEAR     59  25  27 CALM      30.28S
L.A. AIRPORT   CLEAR     64  25  22 N3        30.28S
SAN DIEGO      CLEAR     56  34  43 N6        30.26F
BURBANK        CLEAR     53  24  32 CALM      30.28S
ONTARIO        CLEAR     51  26  37 CALM      30.30R
RIVERSIDE      CLEAR     53  24  32 NE6       30.32S
PALM SPRINGS   CLEAR     56  26  31 NW7       30.39S
EL CENTRO NAS  CLEAR     46  19  34 W7        30.37S
IMPERIAL       CLEAR     44  24  45 W9        30.35S
BLYTHE         CLEAR     53  23  31 N12       30.36S
NEEDLES        CLEAR     54  24  31 N14       30.40S
$$

NVZ020-UTZ003-060900-
SOUTHERN NEVADA-UTAH

CITY           SKY/WX    TMP DP  RH WIND       PRES   REMARKS
LAS VEGAS      CLEAR     44  26  49 S5        30.43S
SALT LAKE CITY PTCLDY    25  20  81 SE9       30.53R WCI  15
$$

NMZ009-TXZ055-060900-
NEW MEXICO-WEST TEXAS

CITY           SKY/WX    TMP DP  RH WIND       PRES   REMARKS
ALBUQUERQUE    CLOUDY    29  13  51 CALM      30.47F
EL PASO        PTCLDY    35   4  27 NE10      30.43R WCI  27
$$


........................KEY........................
SKY/WX - SKY CONDITION/WEATHER
TMP    - TEMPERATURE IN FAHRENHEIT
DP     - DEW POINT IN FAHRENHEIT
RH     - RELATIVE HUMIDITY IN PERCENT
WIND   - DIRECTION AND SPEED IN MILES PER HOUR (MPH)
VRB    - VARIABLE WIND DIRECTION
PRES   - MEAN SEA LEVEL PRESSURE IN INCHES OF MERCURY
         F - FALLING PRESSURE   R - RISING PRESSURE
         S - STEADY PRESSURE
VSB    - VISIBILITY IN MILES
HX     - HEAT INDEX IN FAHRENHEIT
WCI    - WIND CHILL INDEX IN FAHRENHEIT
TC     - TEMPERATURE IN CELSIUS WHICH IS ALSO KNOWN AS
         TEMPERATURE IN CENTIGRADE
AFB    - AIR FORCE BASE
         LUKE AFB IS LUKE AIR FORCE BASE
         DAVIS-MONTHAN IS DAVIS-MONTHAN AIR FORCE BASE
NAS    - NAVAL AIR STATION
         EL CENTRO NAS IS EL CENTRO NAVAL AIR STATION
N/A    - NOT AVAILABLE




USA.gov is the U.S. government's official web portal to all federal, state and local government web resources and services.